• In Deutschland
  • Länderverzeichnis
  • Für 7 Tage
  • Wassertemperatur
  • Satellitenkarten
  • Wetterkarte
  • Widgets
  • user-avatar
    Anmelden

    Stündliche Wetter Wertheim

    Heute, 16 Dezember, Samstag

    Zeit Temperatur Niederschläge Wind Luftdruck Luftfeuchtigkeit
    00:00 +2°C° 0,3 mm 1 m/S 728 mmHg 92%
    01:00 +2°C° 0 mm 1 m/S 728 mmHg 91%
    02:00 +2°C° 0,4 mm 1 m/S 728 mmHg 92%
    03:00 +2°C° 0,4 mm 1 m/S 728 mmHg 93%
    04:00 +2°C° 0,4 mm 1 m/S 729 mmHg 93%
    05:00 +2°C° 0,1 mm 1 m/S 729 mmHg 93%
    06:00 +1°C° 0,1 mm 1 m/S 729 mmHg 94%
    07:00 +1°C° 0 mm 1 m/S 730 mmHg 94%
    08:00 +2°C° 0 mm 1 m/S 731 mmHg 93%
    09:00 +2°C° 0 mm 1 m/S 731 mmHg 92%
    10:00 +1°C° 0 mm 2 m/S 732 mmHg 91%
    11:00 +2°C° 0 mm 2 m/S 733 mmHg 88%
    12:00 +2°C° 0 mm 3 m/S 733 mmHg 86%
    13:00 +2°C° 0 mm 3 m/S 734 mmHg 84%
    14:00 +2°C° 0,1 mm 3 m/S 735 mmHg 84%
    15:00 +2°C° 0,1 mm 3 m/S 735 mmHg 85%
    16:00 +1°C° 0,1 mm 3 m/S 735 mmHg 85%
    17:00 +1°C° 0 mm 3 m/S 736 mmHg 86%
    18:00 0°C° 0 mm 3 m/S 737 mmHg 88%
    19:00 0°C° 0 mm 3 m/S 737 mmHg 89%
    20:00 0°C° 0 mm 3 m/S 738 mmHg 90%
    21:00 -1°C° 0 mm 3 m/S 738 mmHg 91%
    22:00 -1°C° 0 mm 3 m/S 739 mmHg 92%
    23:00 -1°C° 0 mm 3 m/S 739 mmHg 92%

    Morgen, 17 Dezember, Sonntag

    Zeit Temperatur Niederschläge Wind Luftdruck Luftfeuchtigkeit
    00:00 -1°C° 0 mm 3 m/S 739 mmHg 92%
    01:00 -1°C° 0 mm 3 m/S 739 mmHg 92%
    02:00 -1°C° 0 mm 3 m/S 740 mmHg 92%
    03:00 -1°C° 0 mm 3 m/S 740 mmHg 92%
    04:00 -1°C° 0 mm 3 m/S 740 mmHg 91%
    05:00 -1°C° 0,2 mm 4 m/S 740 mmHg 91%
    06:00 -1°C° 0,2 mm 4 m/S 741 mmHg 91%
    07:00 -1°C° 0,2 mm 4 m/S 741 mmHg 91%
    08:00 -1°C° 0,2 mm 4 m/S 742 mmHg 90%
    09:00 -1°C° 0,2 mm 4 m/S 742 mmHg 89%
    10:00 -1°C° 0,2 mm 4 m/S 743 mmHg 89%
    11:00 -1°C° 0 mm 4 m/S 743 mmHg 88%
    12:00 0°C° 0 mm 4 m/S 743 mmHg 87%
    13:00 0°C° 0 mm 4 m/S 743 mmHg 86%
    14:00 0°C° 0 mm 4 m/S 744 mmHg 87%
    15:00 +1°C° 0 mm 3 m/S 744 mmHg 87%
    16:00 0°C° 0 mm 3 m/S 744 mmHg 88%
    17:00 0°C° 0 mm 3 m/S 745 mmHg 88%
    18:00 0°C° 0 mm 3 m/S 745 mmHg 89%
    19:00 0°C° 0 mm 3 m/S 746 mmHg 90%
    20:00 0°C° 0 mm 3 m/S 746 mmHg 90%
    21:00 0°C° 0 mm 3 m/S 746 mmHg 90%
    22:00 0°C° 0 mm 3 m/S 746 mmHg 90%
    23:00 0°C° 0 mm 3 m/S 746 mmHg 91%

    übermorgen, 18 Dezember, Montag

    Zeit Temperatur Niederschläge Wind Luftdruck Luftfeuchtigkeit
    00:00 -1°C° 0 mm 4 m/S 746 mmHg 91%
    01:00 -1°C° 0 mm 4 m/S 746 mmHg 91%
    02:00 -1°C° 0,2 mm 4 m/S 745 mmHg 90%
    03:00 -1°C° 0,2 mm 5 m/S 744 mmHg 89%
    04:00 -1°C° 0,2 mm 5 m/S 744 mmHg 87%
    05:00 -1°C° 1 mm 5 m/S 743 mmHg 89%
    06:00 -2°C° 1 mm 5 m/S 742 mmHg 91%
    07:00 -3°C° 1 mm 6 m/S 742 mmHg 93%
    08:00 -2°C° 0,6 mm 5 m/S 742 mmHg 93%
    09:00 -1°C° 0,6 mm 5 m/S 742 mmHg 93%
    10:00 -1°C° 0,6 mm 4 m/S 742 mmHg 94%
    11:00 0°C° 0,3 mm 4 m/S 742 mmHg 94%
    12:00 +1°C° 0,3 mm 3 m/S 742 mmHg 94%
    13:00 +2°C° 0,3 mm 3 m/S 742 mmHg 94%
    14:00 +2°C° 0 mm 3 m/S 743 mmHg 93%
    15:00 +2°C° 0 mm 2 m/S 743 mmHg 93%
    16:00 +2°C° 0 mm 2 m/S 744 mmHg 93%
    17:00 +2°C° 0 mm 2 m/S 744 mmHg 93%
    18:00 +1°C° 0 mm 2 m/S 745 mmHg 94%
    19:00 +1°C° 0 mm 2 m/S 746 mmHg 94%
    20:00 +2°C° 0 mm 1 m/S 747 mmHg 94%
    21:00 +1°C° 0 mm 1 m/S 747 mmHg 94%
    22:00 +1°C° 0 mm 1 m/S 748 mmHg 94%
    23:00 +1°C° 0 mm 1 m/S 748 mmHg 94%

    19 Dezember, Dienstag

    Zeit Temperatur Niederschläge Wind Luftdruck Luftfeuchtigkeit
    00:00 +1°C° 0 mm 1 m/S 749 mmHg 94%
    01:00 +1°C° 0 mm 1 m/S 749 mmHg 94%
    02:00 0°C° 0 mm 1 m/S 750 mmHg 94%
    03:00 0°C° 0 mm 1 m/S 750 mmHg 94%
    04:00 0°C° 0 mm 1 m/S 750 mmHg 94%
    05:00 0°C° 0 mm 1 m/S 751 mmHg 94%
    06:00 0°C° 0 mm 1 m/S 751 mmHg 94%
    07:00 -1°C° 0 mm 1 m/S 751 mmHg 94%
    08:00 0°C° 0 mm 1 m/S 752 mmHg 93%
    09:00 0°C° 0 mm 1 m/S 752 mmHg 93%
    10:00 +1°C° 0 mm 1 m/S 753 mmHg 92%
    11:00 +1°C° 0 mm 1 m/S 753 mmHg 92%
    12:00 +2°C° 0 mm 1 m/S 753 mmHg 92%
    13:00 +2°C° 0 mm 2 m/S 753 mmHg 92%
    14:00 +2°C° 0 mm 1 m/S 753 mmHg 92%
    15:00 +2°C° 0 mm 1 m/S 753 mmHg 93%
    16:00 +2°C° 0 mm 1 m/S 753 mmHg 94%
    17:00 +1°C° 0 mm 1 m/S 753 mmHg 94%
    18:00 +1°C° 0 mm 1 m/S 753 mmHg 94%
    19:00 -1°C° 0 mm 2 m/S 753 mmHg 94%
    20:00 -1°C° 0 mm 2 m/S 754 mmHg 94%
    21:00 -1°C° 0 mm 2 m/S 754 mmHg 94%
    22:00 -1°C° 0 mm 2 m/S 754 mmHg 94%
    23:00 -1°C° 0 mm 2 m/S 754 mmHg 94%

    20 Dezember, Mittwoch

    Zeit Temperatur Niederschläge Wind Luftdruck Luftfeuchtigkeit
    00:00 -1°C° 0 mm 2 m/S 754 mmHg 94%
    01:00 -2°C° 0 mm 2 m/S 754 mmHg 94%
    02:00 -2°C° 0 mm 2 m/S 753 mmHg 94%
    03:00 -2°C° 0 mm 2 m/S 753 mmHg 94%
    04:00 -2°C° 0 mm 2 m/S 753 mmHg 94%
    05:00 -2°C° 0 mm 2 m/S 753 mmHg 93%
    06:00 -2°C° 0 mm 3 m/S 753 mmHg 93%
    07:00 -1°C° 0 mm 3 m/S 753 mmHg 93%
    08:00 -1°C° 0,2 mm 3 m/S 753 mmHg 93%
    09:00 0°C° 0,2 mm 3 m/S 753 mmHg 93%
    10:00 0°C° 0,2 mm 3 m/S 753 mmHg 93%
    11:00 +1°C° 0,5 mm 3 m/S 753 mmHg 94%
    12:00 +1°C° 0,5 mm 3 m/S 753 mmHg 95%
    13:00 +1°C° 0,5 mm 3 m/S 753 mmHg 96%
    14:00 +1°C° 0,1 mm 3 m/S 753 mmHg 96%
    15:00 +2°C° 0,1 mm 2 m/S 753 mmHg 97%
    16:00 +3°C° 0,1 mm 2 m/S 753 mmHg 98%
    17:00 +3°C° 0 mm 2 m/S 753 mmHg 98%
    18:00 +3°C° 0 mm 2 m/S 753 mmHg 98%
    19:00 +2°C° 0 mm 3 m/S 754 mmHg 98%
    20:00 +2°C° 0 mm 3 m/S 754 mmHg 98%
    21:00 +2°C° 0 mm 3 m/S 754 mmHg 98%
    22:00 +2°C° 0 mm 3 m/S 754 mmHg 98%
    23:00 +2°C° 0,2 mm 3 m/S 754 mmHg 98%

    21 Dezember, Donnerstag

    Zeit Temperatur Niederschläge Wind Luftdruck Luftfeuchtigkeit
    00:00 +3°C° 0,2 mm 3 m/S 754 mmHg 98%
    01:00 +3°C° 0,2 mm 3 m/S 754 mmHg 98%
    02:00 +3°C° 0 mm 3 m/S 754 mmHg 98%
    03:00 +3°C° 0 mm 3 m/S 753 mmHg 98%
    04:00 +3°C° 0 mm 3 m/S 753 mmHg 98%
    05:00 +3°C° 0 mm 3 m/S 753 mmHg 98%
    06:00 +3°C° 0 mm 3 m/S 753 mmHg 98%
    07:00 +3°C° 0 mm 3 m/S 753 mmHg 98%
    08:00 +4°C° 0 mm 3 m/S 753 mmHg 98%
    09:00 +4°C° 0 mm 3 m/S 753 mmHg 97%
    10:00 +4°C° 0 mm 4 m/S 753 mmHg 97%
    11:00 +5°C° 0 mm 4 m/S 753 mmHg 97%
    12:00 +5°C° 0 mm 4 m/S 753 mmHg 96%
    13:00 +5°C° 0 mm 4 m/S 752 mmHg 96%
    14:00 +6°C° 0 mm 4 m/S 752 mmHg 96%
    15:00 +6°C° 0 mm 4 m/S 752 mmHg 95%
    16:00 +6°C° 0 mm 4 m/S 752 mmHg 95%
    17:00 +6°C° 0 mm 4 m/S 752 mmHg 95%
    18:00 +6°C° 0 mm 4 m/S 752 mmHg 95%
    19:00 +6°C° 0 mm 4 m/S 752 mmHg 95%
    20:00 +6°C° 0 mm 4 m/S 752 mmHg 94%
    21:00 +6°C° 0 mm 5 m/S 751 mmHg 94%
    22:00 +6°C° 0 mm 5 m/S 751 mmHg 93%
    23:00 +6°C° 0,1 mm 5 m/S 751 mmHg 93%
    Mehr zeigen

    XHprof extension not loaded